This demonstration page uses our WeatherBlox Daily Observations layout. Learn more.

Left ArrowRight Arrow

39.01783, -85.05884

Hourly Observations for February 14, 2019

Temp ( °F °C ) Dew Point ( °F °C ) Humidity (%) Winds ( mph kmh ) Pressure ( in mb ) Visibility ( mi km ) Precip ( " mm )
12:52 am 00:52 Cloudy 34 1.1 22 -5.6 61 61 S 6 9 30.03 1017 10 16 0.00 0.00
1:52 am 01:52 Cloudy 34 1.1 23 -5 64 64 SSW 8 13 30.02 1017 10 16 0.00 0.00
2:52 am 02:52 Cloudy 36 2.2 23 -5 59 59 SSW 7 11 30.02 1017 10 16 0.00 0.00
3:52 am 03:52 Cloudy 35 1.7 24 -4.4 64 64 S 8 13 30.00 1016 10 16 0.00 0.00
4:52 am 04:52 Cloudy 35 1.7 25 -3.9 67 67 S 12 19 29.98 1015 10 16 0.00 0.00
5:52 am 05:52 Cloudy 37 2.8 25 -3.9 62 62 S 10 17 29.97 1015 10 16 0.00 0.00
6:52 am 06:52 Cloudy 38 3.3 25 -3.9 60 60 S 14 22 29.96 1014 10 16 0.00 0.00
7:52 am 07:52 Cloudy 39 3.9 25 -3.9 57 57 S 15 24 29.94 1014 10 16 0.00 0.00
8:52 am 08:52 Sunny 41 5 26 -3.3 55 55 S 15 24 29.92 1013 10 16 0.00 0.00
9:52 am 09:52 Cloudy 43 6.1 27 -2.8 53 53 S 13 20 29.89 1012 10 16 0.00 0.00
10:52 am 10:52 Cloudy 46 7.8 28 -2.2 50 50 S 16 26 29.87 1012 10 16 0.00 0.00
11:52 am 11:52 Cloudy 47 8.3 28 -2.2 48 48 S 15 24 29.83 1010 10 16 0.00 0.00
12:52 pm 12:52 Cloudy 49 9.4 28 -2.2 44 44 S 14 22 29.77 1008 10 16 0.00 0.00
1:52 pm 13:52 Cloudy 50 10 29 -1.7 44 44 S 17 28 29.71 1006 10 16 0.00 0.00
2:52 pm 14:52 Cloudy 53 11.7 25 -3.9 34 34 SSW 17 28 29.67 1005 10 16 0.00 0.00
3:52 pm 15:52 Cloudy 55 12.8 24 -4.4 30 30 SSW 20 31 29.64 1004 10 16 0.00 0.00
4:52 pm 16:52 Mostly Cloudy 56 13.3 24 -4.4 29 29 SSW 14 22 29.64 1004 10 16 0.00 0.00
5:52 pm 17:52 Mostly Cloudy 55 12.8 24 -4.4 30 30 SSW 10 17 29.63 1004 10 16 0.00 0.00
6:52 pm 18:52 Mostly Cloudy 54 12.2 25 -3.9 33 33 SW 14 22 29.65 1004 10 16 0.00 0.00
7:52 pm 19:52 Cloudy 54 12.2 25 -3.9 33 33 SW 13 20 29.65 1004 10 16 0.00 0.00
8:52 pm 20:52 Cloudy 53 11.7 27 -2.8 37 37 SSW 14 22 29.64 1004 10 16 0.00 0.00
9:52 pm 21:52 Cloudy 53 11.7 28 -2.2 38 38 SSW 13 20 29.64 1004 10 16 0.00 0.00
10:52 pm 22:52 Cloudy 53 11.7 30 -1.1 41 41 SW 14 22 29.63 1004 10 16 0.00 0.00
11:52 pm 23:52 Cloudy 52 11.1 32 0 47 47 SW 12 19 29.65 1004 10 16 0.00 0.00

Powered by AerisWeather